Language: 


Des rapports , des résumés tant et plus, au choix de chacun....


Données Historiques de Météogheer
Journalier Rapport pour Février 1, 2018 Unitée:  Impériale    Métrique   Les deux
Suivant Jour »
Journalier Hebdomadaire Mensuel Annuel Sur mesure
  Max: Min: Moyenne:
Température: 47.3 °F 33.6 °F 39.2 °F
Point de rosée: 42.8 °F 32 °F 36.5 °F
Humidité: 98% 61% 89%
Vent: 20.1mph 0mph 5.4mph
Rafales: 23mph - -
Vent- - WSW
Pression: 29.6 in 29.5 in -
Pluie: 0.14 in    
Historical Graphs
 
 
Données tabulaires pour Février 1, 2018
Heure Température Point de rosée Pression Vent Vent Rafales Humidité Pluie Taux (Horaire) Conditions
00:03 36 °F 33.8 °F 29.6 in West 3.8 mph 5.4 mph 92% 0 in
00:08 36 °F 33.8 °F 29.6 in West 4.9 mph 6 mph 92% 0 in
00:13 36 °F 33.8 °F 29.6 in WSW 2 mph 6 mph 91% 0 in
00:18 35.8 °F 33.8 °F 29.6 in Calm   6.5 mph 91% 0 in
00:23 35.8 °F 33.8 °F 29.6 in Calm   6.5 mph 91% 0 in
00:28 35.6 °F 33.8 °F 29.6 in Calm     91% 0 in
00:33 35.2 °F 32 °F 29.6 in Calm     90% 0 in
00:38 34.9 °F 32 °F 29.6 in Calm     90% 0 in
00:43 34.3 °F 32 °F 29.6 in Calm     89% 0 in
00:48 34.3 °F 32 °F 29.6 in Calm     90% 0 in
00:53 34.3 °F 32 °F 29.6 in Calm   4.3 mph 90% 0 in
00:58 34.3 °F 32 °F 29.6 in WSW 5.6 mph 5.6 mph 91% 0 in
01:03 34.5 °F 32 °F 29.6 in WSW 5.4 mph 5.8 mph 92% 0 in
01:08 34.5 °F 32 °F 29.6 in WSW 5.4 mph 6 mph 92% 0 in
01:13 34.5 °F 33.8 °F 29.6 in Calm   6 mph 93% 0 in
01:18 34.5 °F 33.8 °F 29.6 in WSW 3.1 mph 5.8 mph 93% 0 in
01:23 34.7 °F 33.8 °F 29.6 in Calm   3.1 mph 93% 0 in
01:28 34.5 °F 33.8 °F 29.6 in Calm   3.1 mph 93% 0 in
01:33 34.5 °F 33.8 °F 29.6 in Calm   0.9 mph 93% 0 in
01:38 34.3 °F 33.8 °F 29.6 in Calm   3.6 mph 93% 0 in
01:43 34.2 °F 33.8 °F 29.6 in Calm   3.6 mph 93% 0 in
01:48 34.3 °F 33.8 °F 29.6 in Calm   3.6 mph 93% 0 in
01:53 34.5 °F 33.8 °F 29.6 in Calm   4.5 mph 94% 0 in
01:59 34.7 °F 33.8 °F 29.6 in SSW 5.4 mph 5.4 mph 95% 0 in
02:04 34.9 °F 33.8 °F 29.6 in SSW 1.1 mph 5.4 mph 95% 0 in
02:09 34.9 °F 33.8 °F 29.6 in Calm   5.4 mph 95% 0 in
02:14 34.9 °F 33.8 °F 29.6 in Calm   2.9 mph 95% 0 in
02:19 34.7 °F 33.8 °F 29.6 in Calm   0.9 mph 95% 0 in
02:24 34.5 °F 33.8 °F 29.6 in Calm   2 mph 94% 0 in
02:29 34.3 °F 33.8 °F 29.5 in West 2.5 mph 2.7 mph 94% 0 in
02:34 34 °F 32 °F 29.5 in Calm   2.7 mph 93% 0 in
02:39 33.6 °F 32 °F 29.5 in Calm   4.7 mph 93% 0 in
02:44 34 °F 32 °F 29.5 in Calm   4.7 mph 94% 0 in
02:49 34.3 °F 33.8 °F 29.5 in WSW 4.5 mph 4.5 mph 95% 0 in
02:54 34.5 °F 33.8 °F 29.5 in Calm   4.5 mph 96% 0 in
02:59 34.5 °F 33.8 °F 29.5 in Calm   4.5 mph 96% 0 in
03:04 34.3 °F 33.8 °F 29.5 in SSW 2.9 mph 3.4 mph 96% 0 in
03:09 34.3 °F 33.8 °F 29.5 in Calm   4.7 mph 96% 0 in
03:14 34.7 °F 33.8 °F 29.5 in Calm   4.7 mph 96% 0 in
03:19 34.9 °F 33.8 °F 29.5 in Calm   3.8 mph 97% 0 in
03:24 34.9 °F 33.8 °F 29.5 in SSW 1.6 mph 3.8 mph 97% 0 in
03:29 34.9 °F 33.8 °F 29.5 in Calm   3.8 mph 97% 0 in
03:34 34.9 °F 33.8 °F 29.5 in SSW 3.4 mph 3.4 mph 96% 0 in
03:39 34.9 °F 33.8 °F 29.5 in Calm   3.6 mph 96% 0 in
03:44 34.5 °F 33.8 °F 29.5 in SSW 3.6 mph 4.9 mph 96% 0 in
03:49 34.5 °F 33.8 °F 29.5 in South 2.9 mph 4.9 mph 96% 0 in
03:54 34.3 °F 33.8 °F 29.5 in South 2.5 mph 4.9 mph 96% 0 in
03:59 34.3 °F 33.8 °F 29.5 in Calm   3.8 mph 96% 0 in
04:04 34.2 °F 33.8 °F 29.5 in SSW 2.9 mph 3.8 mph 96% 0 in
04:09 34 °F 33.8 °F 29.5 in Calm   3.1 mph 96% 0 in
04:14 34.2 °F 33.8 °F 29.5 in SW 3.4 mph 5.8 mph 96% 0 in
04:19 34.5 °F 33.8 °F 29.5 in SSW 6 mph 7.4 mph 97% 0 in
04:24 34.9 °F 33.8 °F 29.5 in SSW 0.9 mph 7.4 mph 97% 0 in
04:29 35.1 °F 35.6 °F 29.5 in SSW 5.4 mph 7.2 mph 98% 0 in
04:34 35.4 °F 35.6 °F 29.5 in SSW 6.3 mph 7.6 mph 98% 0 in
04:39 35.4 °F 35.6 °F 29.5 in SW 5.4 mph 7.6 mph 98% 0 in
04:44 35.6 °F 35.6 °F 29.5 in Calm   7.8 mph 98% 0 in
04:49 35.8 °F 35.6 °F 29.5 in South 6 mph 10.3 mph 98% 0 in
04:54 36 °F 35.6 °F 29.5 in South 6 mph 10.3 mph 98% 0 in
04:59 36 °F 35.6 °F 29.5 in SSW 6 mph 8.5 mph 98% 0 in
05:04 36 °F 35.6 °F 29.5 in SSW 7.6 mph 8.7 mph 97% 0 in
05:09 36 °F 35.6 °F 29.5 in South 5.4 mph 8.7 mph 97% 0 in
05:14 36 °F 35.6 °F 29.5 in SW 6.3 mph 8.7 mph 97% 0 in
05:19 36 °F 35.6 °F 29.5 in SW 12.8 mph 12.8 mph 97% 0 in
05:25 36.1 °F 35.6 °F 29.5 in SW 7.4 mph 12.8 mph 97% 0 in
05:30 36.1 °F 35.6 °F 29.5 in SSW 8.1 mph 11 mph 97% 0 in
05:35 36.3 °F 35.6 °F 29.5 in WSW 6.3 mph 10.3 mph 97% 0 in
05:40 36.3 °F 35.6 °F 29.5 in SW 6 mph 13 mph 97% 0 in
05:45 36.7 °F 37.4 °F 29.5 in WSW 6.5 mph 13 mph 97% 0 in
05:50 36.9 °F 37.4 °F 29.5 in SW 11 mph 13.9 mph 98% 0 in
05:55 37 °F 37.4 °F 29.5 in SSW 11.9 mph 15.4 mph 98% 0 in
06:00 37.2 °F 37.4 °F 29.5 in WSW 20.1 mph 22.8 mph 98% 0 in
06:05 37 °F 37.4 °F 29.5 in WSW 18.8 mph 23 mph 98% 0.02 in
06:10 36.9 °F 37.4 °F 29.5 in SW 13.2 mph 23 mph 98% 0.03 in
06:15 36.9 °F 37.4 °F 29.5 in WSW 10.3 mph 17.4 mph 98% 0.03 in
06:20 36.9 °F 37.4 °F 29.5 in WSW 10.7 mph 13.2 mph 98% 0.03 in
06:25 37 °F 37.4 °F 29.5 in WSW 8.1 mph 13.2 mph 98% 0.03 in
06:31 36.9 °F 37.4 °F 29.5 in WSW 8.1 mph 15.2 mph 98% 0.05 in
06:36 36.9 °F 37.4 °F 29.5 in WSW 9.2 mph 15.2 mph 98% 0.05 in
06:41 37 °F 37.4 °F 29.5 in WSW 12.3 mph 15.4 mph 98% 0.05 in
06:46 36.9 °F 37.4 °F 29.5 in WSW 15.2 mph 15.4 mph 98% 0.05 in
06:51 36.9 °F 37.4 °F 29.5 in WSW 10.5 mph 15.9 mph 98% 0.05 in
06:56 36.7 °F 37.4 °F 29.5 in SW 10.3 mph 15.9 mph 98% 0.06 in
07:01 36.9 °F 37.4 °F 29.5 in SW 8.1 mph 12.1 mph 98% 0.05 in
07:06 36.9 °F 37.4 °F 29.5 in WSW 8.1 mph 13 mph 98% 0.03 in
07:11 36.9 °F 37.4 °F 29.5 in SSW 5.8 mph 13 mph 98% 0.02 in
07:16 36.9 °F 37.4 °F 29.5 in SW 10.1 mph 10.1 mph 98% 0.02 in
07:21 36.9 °F 37.4 °F 29.5 in WSW 9.4 mph 10.3 mph 98% 0.02 in
07:26 37 °F 37.4 °F 29.5 in SW 6.3 mph 10.3 mph 98% 0.02 in
07:31 37 °F 37.4 °F 29.5 in SW 6 mph 8.7 mph 98% 0.01 in
07:36 37.2 °F 37.4 °F 29.5 in SSW 6.5 mph 10.5 mph 98% 0.01 in
07:41 37.2 °F 37.4 °F 29.5 in SW 5.8 mph 10.5 mph 98% 0.01 in
07:46 37.2 °F 37.4 °F 29.5 in WSW 6.3 mph 8.1 mph 98% 0.01 in
07:51 37.2 °F 37.4 °F 29.5 in SW 7.4 mph 8.1 mph 98% 0.01 in
07:56 37.2 °F 37.4 °F 29.5 in SSW 6 mph 7.8 mph 98% 0 in
08:01 37.2 °F 37.4 °F 29.5 in WSW 6.7 mph 10.3 mph 98% 0 in
08:06 37.2 °F 37.4 °F 29.5 in WSW 8.7 mph 13.2 mph 98% 0 in
08:11 37.4 °F 37.4 °F 29.5 in SW 14.1 mph 17.4 mph 98% 0 in
08:16 37.4 °F 37.4 °F 29.5 in SW 13.9 mph 17.4 mph 98% 0 in
08:21 37.4 °F 37.4 °F 29.5 in WSW 13 mph 14.3 mph 98% 0 in
08:27 37.4 °F 37.4 °F 29.5 in SW 11.2 mph 15.2 mph 98% 0 in
08:32 37.4 °F 37.4 °F 29.5 in WSW 7.6 mph 15.2 mph 98% 0 in
08:37 37.4 °F 37.4 °F 29.5 in WSW 11 mph 13.4 mph 98% 0.01 in
08:42 37.4 °F 37.4 °F 29.5 in WSW 10.3 mph 13.4 mph 98% 0.01 in
08:47 37.4 °F 37.4 °F 29.5 in WSW 7.4 mph 11.2 mph 98% 0.01 in
08:52 37.4 °F 37.4 °F 29.5 in WSW 8.5 mph 13.2 mph 98% 0.01 in
08:57 37.4 °F 37.4 °F 29.5 in WSW 7.6 mph 13.2 mph 98% 0.01 in
09:02 37.4 °F 37.4 °F 29.5 in WSW 9.8 mph 13 mph 98% 0.01 in
09:07 37.4 °F 37.4 °F 29.5 in WSW 8.7 mph 11 mph 98% 0.01 in
09:12 37.4 °F 37.4 °F 29.5 in WSW 8.5 mph 10.7 mph 98% 0.01 in
09:17 37.4 °F 37.4 °F 29.5 in WSW 7.6 mph 13.6 mph 98% 0.01 in
09:22 37.6 °F 37.4 °F 29.5 in WSW 8.7 mph 13.6 mph 98% 0.01 in
09:27 37.6 °F 37.4 °F 29.5 in WSW 7.8 mph 11 mph 98% 0.01 in
09:32 37.6 °F 37.4 °F 29.5 in WSW 11 mph 11 mph 98% 0.01 in
09:38 37.6 °F 37.4 °F 29.5 in WSW 7.6 mph 11 mph 98% 0 in
09:43 37.8 °F 37.4 °F 29.5 in WSW 11.9 mph 11.9 mph 98% 0 in
09:48 38.1 °F 37.4 °F 29.5 in WSW 7.4 mph 11.9 mph 98% 0 in
09:53 38.7 °F 39.2 °F 29.5 in WSW 9.8 mph 9.8 mph 98% 0 in
09:58 38.5 °F 39.2 °F 29.5 in SW 8.1 mph 10.3 mph 98% 0 in
10:03 38.3 °F 39.2 °F 29.5 in SW 6.3 mph 10.3 mph 98% 0.01 in
10:08 38.5 °F 39.2 °F 29.5 in WSW 10.5 mph 17 mph 98% 0.01 in
10:13 38.7 °F 39.2 °F 29.5 in West 8.7 mph 17 mph 98% 0.01 in
10:18 38.7 °F 39.2 °F 29.5 in WSW 9.8 mph 13 mph 98% 0.01 in
10:23 38.8 °F 39.2 °F 29.5 in WSW 5.4 mph 13.2 mph 98% 0.01 in
10:29 39.2 °F 39.2 °F 29.5 in West 10.1 mph 13 mph 98% 0.02 in
10:34 39.4 °F 39.2 °F 29.5 in West 5.8 mph 13 mph 98% 0.02 in
10:39 39.6 °F 39.2 °F 29.5 in West 7.4 mph 11 mph 98% 0.02 in
10:44 39.7 °F 39.2 °F 29.6 in West 5.6 mph 14.8 mph 98% 0.02 in
10:49 39.9 °F 39.2 °F 29.6 in SSW 2.9 mph 14.8 mph 98% 0.02 in
10:54 39.9 °F 39.2 °F 29.6 in West 5.8 mph 10.7 mph 98% 0.02 in
10:59 40.1 °F 41 °F 29.6 in West 6 mph 10.7 mph 98% 0.02 in
11:04 40.1 °F 41 °F 29.6 in WNW 4.7 mph 10.7 mph 98% 0.01 in
11:09 40.6 °F 41 °F 29.6 in West 3.6 mph 10.5 mph 98% 0.01 in
11:14 41 °F 41 °F 29.6 in West 6.3 mph 10.5 mph 98% 0.01 in
11:19 41.4 °F 41 °F 29.6 in WSW 6.5 mph 12.1 mph 98% 0.01 in
11:24 41.5 °F 42.8 °F 29.6 in WNW 6 mph 12.1 mph 98% 0.01 in
11:29 41.2 °F 41 °F 29.6 in NNW 2 mph 12.1 mph 98% 0 in
11:34 41 °F 41 °F 29.6 in WSW 1.6 mph 6.5 mph 98% 0 in
11:39 41.4 °F 41 °F 29.6 in West 3.6 mph 8.5 mph 98% 0 in
11:44 42.1 °F 42.8 °F 29.6 in West 1.3 mph 8.5 mph 98% 0 in
11:49 42.8 °F 42.8 °F 29.6 in West 9.8 mph 11 mph 98% 0 in
11:54 43.2 °F 42.8 °F 29.6 in WNW 8.5 mph 11 mph 97% 0 in
11:59 42.8 °F 42.8 °F 29.6 in NNW 8.1 mph 10.5 mph 95% 0 in
12:04 42.6 °F 41 °F 29.6 in West 7.6 mph 10.1 mph 92% 0 in
12:09 43.2 °F 41 °F 29.6 in WNW 6 mph 15.4 mph 88% 0 in
12:14 43.9 °F 41 °F 29.6 in WNW 4.3 mph 15.4 mph 87% 0 in
12:19 44.4 °F 41 °F 29.6 in West 5.4 mph 10.1 mph 87% 0 in
12:25 43.7 °F 41 °F 29.6 in WNW 4.9 mph 10.3 mph 85% 0 in
12:30 43.7 °F 41 °F 29.6 in WNW 1.1 mph 9.8 mph 85% 0 in
12:35 44.2 °F 41 °F 29.6 in WSW 5.6 mph 8.7 mph 86% 0 in
12:40 44.6 °F 41 °F 29.6 in West 9.4 mph 10.3 mph 84% 0 in
12:45 44.1 °F 39.2 °F 29.6 in West 8.7 mph 14.3 mph 81% 0 in
12:50 43.5 °F 37.4 °F 29.6 in NW 6.3 mph 14.3 mph 79% 0 in
12:55 43.2 °F 37.4 °F 29.6 in West 9.6 mph 13.4 mph 80% 0 in
13:00 42.8 °F 37.4 °F 29.6 in WNW 2.7 mph 10.7 mph 79% 0 in
13:05 42.8 °F 37.4 °F 29.6 in NNW 3.6 mph 10.7 mph 81% 0 in
13:10 43.3 °F 39.2 °F 29.6 in NW 6 mph 8.5 mph 83% 0 in
13:15 43.9 °F 39.2 °F 29.6 in NW 4.9 mph 8.7 mph 82% 0 in
13:21 43.5 °F 37.4 °F 29.6 in West 6.5 mph 11 mph 80% 0 in
13:26 44.1 °F 39.2 °F 29.6 in West 6 mph 11.9 mph 81% 0 in
13:31 45 °F 39.2 °F 29.5 in WSW 3.6 mph 11.9 mph 80% 0 in
13:36 45.3 °F 39.2 °F 29.5 in West 3.8 mph 10.1 mph 77% 0 in
13:41 45.7 °F 39.2 °F 29.5 in North 11.9 mph 12.3 mph 77% 0 in
13:46 45.9 °F 37.4 °F 29.6 in West 8.5 mph 12.5 mph 74% 0 in
13:51 45.9 °F 37.4 °F 29.6 in NW 6.3 mph 12.5 mph 74% 0 in
13:56 46.4 °F 39.2 °F 29.6 in NW 3.1 mph 12.3 mph 73% 0 in
14:01 46.8 °F 39.2 °F 29.6 in West 12.5 mph 13.2 mph 74% 0 in
14:06 46.2 °F 37.4 °F 29.6 in WNW 10.5 mph 13.2 mph 71% 0 in
14:11 46.2 °F 37.4 °F 29.6 in NW 5.8 mph 12.3 mph 72% 0 in
14:16 46.4 °F 37.4 °F 29.5 in NNW 5.8 mph 10.7 mph 71% 0 in
14:21 46.2 °F 37.4 °F 29.5 in SW 7.4 mph 10.3 mph 69% 0 in
14:26 46.6 °F 37.4 °F 29.5 in SSW 4.9 mph 11 mph 71% 0 in
14:31 46.8 °F 39.2 °F 29.6 in West 6.5 mph 11 mph 72% 0 in
14:36 46.4 °F 37.4 °F 29.6 in WNW 6 mph 11.2 mph 70% 0 in
14:41 46 °F 35.6 °F 29.6 in West 7.6 mph 11.2 mph 69% 0 in
14:46 46.2 °F 37.4 °F 29.6 in WSW 8.5 mph 10.3 mph 69% 0 in
14:51 46.9 °F 37.4 °F 29.6 in NW 5.8 mph 13 mph 68% 0 in
14:57 46.9 °F 35.6 °F 29.6 in WSW 8.1 mph 17.7 mph 63% 0 in
15:02 46.6 °F 33.8 °F 29.5 in WSW 6.7 mph 17.7 mph 62% 0 in
15:07 46.6 °F 35.6 °F 29.5 in West 8.1 mph 13 mph 63% 0 in
15:12 46.4 °F 33.8 °F 29.5 in WSW 3.6 mph 13 mph 62% 0 in
15:17 47.1 °F 35.6 °F 29.5 in West 8.5 mph 10.7 mph 64% 0 in
15:22 47.1 °F 35.6 °F 29.5 in WSW 12.3 mph 15.4 mph 62% 0 in
15:27 46.9 °F 33.8 °F 29.5 in WNW 8.5 mph 15.4 mph 61% 0 in
15:32 46.9 °F 35.6 °F 29.6 in West 10.3 mph 13.4 mph 63% 0 in
15:37 46.6 °F 33.8 °F 29.6 in NNW 3.8 mph 13.2 mph 61% 0 in
15:42 46.6 °F 33.8 °F 29.6 in West 5.6 mph 13.2 mph 62% 0 in
15:47 46.6 °F 33.8 °F 29.6 in WNW 6.5 mph 13 mph 62% 0 in
15:52 46.6 °F 35.6 °F 29.6 in West 5.8 mph 13 mph 64% 0 in
15:57 46.6 °F 35.6 °F 29.6 in West 4 mph 9.4 mph 63% 0 in
16:02 46.9 °F 35.6 °F 29.6 in West 4.9 mph 8.7 mph 63% 0 in
16:07 47.3 °F 37.4 °F 29.6 in WSW 3.6 mph 8.1 mph 64% 0 in
16:12 47.1 °F 35.6 °F 29.6 in West 12.8 mph 14.3 mph 63% 0 in
16:17 46.4 °F 33.8 °F 29.6 in West 6.5 mph 14.3 mph 62% 0 in
16:22 45.5 °F 33.8 °F 29.6 in WNW 6.9 mph 13 mph 64% 0 in
16:27 44.2 °F 33.8 °F 29.6 in WNW 3.8 mph 10.5 mph 66% 0 in
16:32 43.5 °F 33.8 °F 29.6 in WNW 4.9 mph 10.5 mph 70% 0 in
16:37 43 °F 33.8 °F 29.6 in WSW 5.8 mph 11.4 mph 71% 0 in
16:42 42.6 °F 35.6 °F 29.6 in WSW 8.7 mph 11.4 mph 73% 0 in
16:47 42.3 °F 35.6 °F 29.6 in WNW 2 mph 11 mph 74% 0 in
16:52 42.1 °F 35.6 °F 29.6 in West 8.1 mph 9.8 mph 74% 0 in
16:57 42.1 °F 35.6 °F 29.6 in West 6.3 mph 9.8 mph 74% 0 in
17:03 42.1 °F 35.6 °F 29.6 in West 3.4 mph 9.8 mph 74% 0 in
17:08 41.7 °F 35.6 °F 29.6 in West 3.4 mph 5.8 mph 75% 0 in
17:13 41.5 °F 35.6 °F 29.6 in WNW 3.8 mph 5.6 mph 75% 0 in
17:18 41.5 °F 35.6 °F 29.6 in West 2 mph 4.3 mph 76% 0 in
17:23 41.4 °F 33.8 °F 29.6 in Calm   6.3 mph 76% 0 in
17:28 41.2 °F 33.8 °F 29.6 in West 3.1 mph 6.3 mph 76% 0 in
17:33 41 °F 33.8 °F 29.6 in Calm   5.6 mph 76% 0 in
17:38 40.6 °F 33.8 °F 29.6 in Calm   5.6 mph 77% 0 in
17:43 40.3 °F 33.8 °F 29.6 in West 2.9 mph 4 mph 77% 0 in
17:48 39.9 °F 33.8 °F 29.6 in West 1.3 mph 3.6 mph 77% 0 in
17:53 39.7 °F 33.8 °F 29.6 in West 2.5 mph 3.8 mph 78% 0 in
17:58 39.6 °F 33.8 °F 29.6 in West 2.5 mph 3.8 mph 78% 0 in
18:03 39.4 °F 33.8 °F 29.6 in WNW 4 mph 4.9 mph 79% 0 in
18:08 39.2 °F 33.8 °F 29.6 in West 2.9 mph 5.6 mph 79% 0 in
18:13 39 °F 33.8 °F 29.6 in WSW 4.7 mph 5.6 mph 80% 0 in
18:18 38.8 °F 33.8 °F 29.6 in WSW 2.7 mph 6.3 mph 80% 0 in
18:24 38.8 °F 33.8 °F 29.6 in WSW 3.4 mph 6.3 mph 81% 0 in
18:29 38.7 °F 33.8 °F 29.6 in West 6 mph 7.4 mph 81% 0 in
18:34 39 °F 33.8 °F 29.6 in West 1.1 mph 7.4 mph 82% 0 in
18:39 39.4 °F 33.8 °F 29.6 in WNW 2.9 mph 7.2 mph 82% 0 in
18:44 39.7 °F 35.6 °F 29.6 in NW 2.7 mph 6 mph 82% 0 in
18:49 39.9 °F 35.6 °F 29.6 in West 6.3 mph 6.3 mph 82% 0 in
18:54 39.9 °F 35.6 °F 29.6 in West 4.3 mph 6.3 mph 82% 0 in
18:59 39.9 °F 35.6 °F 29.6 in West 1.6 mph 6 mph 82% 0 in
19:04 39.7 °F 35.6 °F 29.6 in WSW 4 mph 6.5 mph 82% 0 in
19:09 39.4 °F 33.8 °F 29.6 in Calm   6.5 mph 82% 0 in
19:14 39 °F 33.8 °F 29.6 in Calm   6.3 mph 82% 0 in
19:19 38.8 °F 33.8 °F 29.6 in Calm   6.3 mph 82% 0 in
19:24 38.5 °F 33.8 °F 29.6 in Calm   5.4 mph 83% 0 in
19:29 38.5 °F 33.8 °F 29.6 in Calm   4.3 mph 84% 0 in
19:34 38.5 °F 33.8 °F 29.6 in Calm   4.3 mph 84% 0 in
19:39 38.7 °F 35.6 °F 29.6 in WSW 3.8 mph 4.9 mph 85% 0 in
19:44 38.8 °F 35.6 °F 29.6 in SW 4 mph 4.9 mph 85% 0 in
19:49 39.2 °F 35.6 °F 29.6 in WSW 4.7 mph 6.5 mph 85% 0 in
19:54 39.4 °F 35.6 °F 29.6 in SW 6 mph 6.5 mph 85% 0 in
19:59 39.4 °F 35.6 °F 29.6 in West 5.6 mph 7.6 mph 85% 0 in
20:04 39.6 °F 35.6 °F 29.6 in WSW 4.9 mph 7.6 mph 85% 0 in
20:09 39.6 °F 35.6 °F 29.6 in West 5.8 mph 8.7 mph 84% 0 in
20:14 39.6 °F 35.6 °F 29.6 in West 7.4 mph 8.7 mph 84% 0 in
20:19 39.7 °F 35.6 °F 29.6 in WSW 6 mph 11 mph 84% 0.01 in
20:24 39.9 °F 35.6 °F 29.6 in West 7.6 mph 12.5 mph 84% 0.01 in
20:29 40.1 °F 35.6 °F 29.6 in West 8.1 mph 15.4 mph 84% 0.01 in
20:34 40.1 °F 35.6 °F 29.6 in West 3.6 mph 15.4 mph 84% 0.01 in
20:39 39.9 °F 35.6 °F 29.6 in Calm   8.1 mph 85% 0.01 in
20:44 39.9 °F 35.6 °F 29.6 in NW 1.6 mph 5.6 mph 85% 0.01 in
20:49 39.9 °F 35.6 °F 29.6 in West 3.6 mph 6.3 mph 85% 0.01 in
20:54 40.1 °F 37.4 °F 29.6 in WNW 7.4 mph 7.8 mph 85% 0.01 in
20:59 40.3 °F 37.4 °F 29.6 in NE 4.3 mph 8.5 mph 86% 0.01 in
21:04 40.3 °F 37.4 °F 29.6 in NNE 8.1 mph 8.7 mph 86% 0.01 in
21:09 39.9 °F 37.4 °F 29.6 in West 6 mph 8.7 mph 87% 0.01 in
21:14 39.7 °F 37.4 °F 29.6 in WNW 7.4 mph 8.5 mph 87% 0.01 in
21:19 39.6 °F 37.4 °F 29.6 in West 7.4 mph 12.3 mph 87% 0 in
21:24 39.4 °F 35.6 °F 29.6 in WNW 3.8 mph 12.3 mph 88% 0 in
21:29 39.4 °F 37.4 °F 29.6 in West 4.3 mph 9.4 mph 89% 0 in
21:34 39.2 °F 37.4 °F 29.6 in West 1.3 mph 10.5 mph 90% 0 in
21:39 39.2 °F 37.4 °F 29.6 in West 7.4 mph 10.5 mph 92% 0 in
21:44 39 °F 37.4 °F 29.6 in West 5.4 mph 8.9 mph 93% 0 in
21:49 38.8 °F 37.4 °F 29.6 in West 4.9 mph 9.4 mph 93% 0 in
21:55 38.8 °F 37.4 °F 29.6 in WSW 4.3 mph 9.4 mph 93% 0 in
22:00 38.7 °F 37.4 °F 29.6 in West 3.6 mph 7.8 mph 94% 0 in
22:05 38.7 °F 37.4 °F 29.6 in West 3.8 mph 8.1 mph 94% 0 in
22:10 38.7 °F 37.4 °F 29.6 in West 1.6 mph 8.1 mph 95% 0 in
22:15 38.8 °F 37.4 °F 29.6 in West 8.1 mph 8.1 mph 95% 0 in
22:20 39 °F 39.2 °F 29.6 in WSW 4.9 mph 11 mph 96% 0 in
22:25 39.2 °F 39.2 °F 29.6 in West 7.2 mph 11 mph 96% 0 in
22:30 39.2 °F 39.2 °F 29.6 in SSW 10.5 mph 12.5 mph 97% 0 in
22:35 39.4 °F 39.2 °F 29.6 in WSW 3.8 mph 12.5 mph 98% 0 in
22:40 39.4 °F 39.2 °F 29.6 in NW 5.8 mph 11.2 mph 98% 0 in
22:45 39.4 °F 39.2 °F 29.6 in West 8.5 mph 9.4 mph 98% 0 in
22:50 39.4 °F 39.2 °F 29.6 in WSW 3.6 mph 8.7 mph 98% 0 in
22:55 39.6 °F 39.2 °F 29.6 in NNW 10.1 mph 10.1 mph 98% 0 in
23:00 39.6 °F 39.2 °F 29.6 in West 4.3 mph 10.1 mph 98% 0 in
23:05 39.4 °F 39.2 °F 29.6 in WNW 10.1 mph 12.1 mph 98% 0 in
23:10 39.2 °F 39.2 °F 29.6 in NW 4 mph 12.1 mph 98% 0.01 in
23:15 39 °F 39.2 °F 29.6 in NW 7.6 mph 11 mph 98% 0.01 in
23:20 38.8 °F 39.2 °F 29.6 in West 6.5 mph 11 mph 98% 0.01 in
23:25 38.8 °F 39.2 °F 29.6 in WNW 4 mph 9.8 mph 98% 0.01 in
23:30 38.7 °F 39.2 °F 29.6 in WSW 3.4 mph 10.7 mph 98% 0.01 in
23:35 38.7 °F 39.2 °F 29.6 in WSW 4.3 mph 10.7 mph 98% 0.01 in
23:40 38.5 °F 39.2 °F 29.6 in WNW 11 mph 11 mph 98% 0.01 in
23:45 38.3 °F 39.2 °F 29.6 in NE 4.7 mph 11 mph 98% 0.03 in
23:50 38.1 °F 37.4 °F 29.6 in NNW 8.5 mph 11.2 mph 98% 0.03 in
23:55 38.1 °F 37.4 °F 29.6 in West 3.1 mph 11.2 mph 98% 0.04 in
Données Historique de Météo Turbie

Mise a jour : 22/05/2018 04:24:13
Généré par Cumulus 1.9.4 (1099)